Meteo Giornale » Osservazioni meteo Italia » Milano-Linate

ore: 23:20 - Osservazioni Meteo Milano-Linate
Lat. 45° 26' N Lon. 9° 17' E Alt. 107 metri s.l.m.

sereno Europe/Rome

19 °C

Sereno

Temp. 24 Ore

17 °C

27 °C

Ovest

11.1 Km/h

Dew point 11 °C

Umidità 59 %

Visibilità  10 Km

Il sole sorge alle ore 06:18

Il sole tramonta alle ore 20:23

Data e Ora Cielo e Fenomeni T °C DP °C Um. % Pres. hPa Vis. km Vento km/h
Oggi h: 23:20 sereno Sereno 19 11 59 1013 10 O 11.1
Oggi h: 22:50 sereno Sereno 20 11 56 1013 10 O 13
Oggi h: 22:20 sereno Sereno 20 12 59 1013 10 O/SO 11.1
Oggi h: 21:50 sereno Sereno 21 11 52 1013 10 SO 9.3
Oggi h: 21:20 sereno Sereno 22 11 49 1013 10 N 5.5
Oggi h: 20:50 sereno Sereno 22 12 53 1012 10 SO 7.4
Oggi h: 20:20 sereno Sereno 23 12 49 1012 10 S/SO 9.3
Oggi h: 19:50 sereno Sereno 24 11 43 1012 10 S/SO 13
Oggi h: 19:20 sereno Sereno 25 11 41 1012 10 S/SO 11.1
Oggi h: 18:50 sereno Sereno 27 10 34 1012 10 N 5.5
Oggi h: 18:20 sereno Sereno 27 9 32 1012 10 N 5.5
Oggi h: 17:50 sereno Sereno 27 10 34 1012 10 N 5.5
Oggi h: 17:20 sereno Sereno 26 11 39 1012 10 N 3.7
Oggi h: 16:50 sereno Sereno 26 11 39 1013 10 N 5.5
Oggi h: 16:20 sereno Sereno 26 11 39 1013 10 N 5.5
Oggi h: 15:50 sereno Sereno 27 10 34 1014 10 O/SO 7.4
Oggi h: 15:20 sereno Sereno 26 11 39 1014 10 N 5.5
Oggi h: 14:50 sereno Sereno 25 11 41 1014 10 SO 11.1
Oggi h: 14:20 sereno Sereno 25 10 38 1015 10 N 5.5
Oggi h: 13:50 sereno Sereno 25 11 41 1015 10 O 11.1
Oggi h: 13:20 sereno Sereno 24 10 41 1016 10 O 13
Oggi h: 12:50 sereno Sereno 23 10 43 1016 10 SO 9.3
Oggi h: 12:20 sereno Sereno 23 11 46 1016 10 O 13
Oggi h: 11:50 sereno Sereno 22 10 46 1016 10 O 13
Oggi h: 11:20 sereno Sereno 22 11 49 1016 10 O/SO 11.1
Oggi h: 10:50 sereno Sereno 21 10 49 1017 10 SO 13
Oggi h: 10:20 sereno Sereno 20 10 52 1017 10 O/SO 13
Oggi h: 09:50 sereno Sereno 20 10 52 1017 10 O 11.1
Oggi h: 09:20 sereno Sereno 19 10 55 1017 10 O/SO 11.1
Oggi h: 08:50 sereno Sereno 19 10 55 1016 10 N 7.4
Oggi h: 08:20 sereno Sereno 18 9 55 1016 10 O 7.4
Oggi h: 07:50 sereno Sereno 18 9 55 1016 10 N 5.5
Oggi h: 07:20 sereno Sereno 17 9 59 1016 10 N 5.5
Oggi h: 06:50 sereno Sereno 17 8 55 1016 10 N 7.4
Oggi h: 06:20 sereno Sereno 17 8 55 1016 10 N 7.4
Oggi h: 05:50 sereno Sereno 17 9 59 1015 10 N 7.4
Oggi h: 05:20 sereno Sereno 17 9 59 1015 10 O/NO 7.4
Oggi h: 04:20 sereno Sereno 18 9 55 1016 10 N 7.4
Oggi h: 03:50 sereno Sereno 18 9 55 1016 10 N 7.4
Oggi h: 02:50 sereno Sereno 18 9 55 1016 10 NO 9.3
Oggi h: 02:20 sereno Sereno 18 9 55 1016 10 N/NO 9.3
Oggi h: 01:50 sereno Sereno 19 9 52 1016 10 NO 9.3
Oggi h: 00:50 sereno Sereno 19 9 52 1016 10 NO 9.3
Ieri h: 23:50 sereno Sereno 19 9 52 1016 10 O 11.1